Date String (YYYY-MM-DD hh:mm:ss) UTC,Instrument flags,absolute air pressure of the measurement (hPa),sample flow rate (lpm),inlet stack bypass flow (lpm),air temperature of the measurement (°C),ambient temperature measured by the external sensor (°C),aerosol sample conditioner tube jacket temperature (°C),OPC LED temperature (°C),internal box temperature (°C),relative humidity of the measurement (%),span deviation,mass concentration of particles derived from Lorenz-Mie calculation of OPC scattering (μg/m³),mass concentration of particles derived from Lorenz-Mie calculation of OPC scattering (μg/m³),mass concentration of particles derived from Lorenz-Mie calculation of OPC scattering (μg/m³)
DateTimeUTC,F1_M11,P_M11,Q1_M11,Q2_M11,T1_M11,T2_M11,T3_M11,T4_M11,T5_M11,U1_M11,ZSPAN_M11,X0_M11,X2_M11,X1_M11
2023-12-12 04:00:00,SystemResetWarning,0834.2,5.00,000.00,023.8,022.7,000.0,032.2,025.1,20.5,0000.0,0008.30,0004.04,0003.51
2023-12-12 04:01:00,SystemResetWarning,0834.2,5.00,000.00,023.8,022.7,000.0,032.2,025.1,20.5,0000.0,0008.19,0004.04,0003.53
2023-12-12 04:02:00,SystemResetWarning,0834.4,4.99,000.00,023.8,022.7,000.0,032.2,025.1,20.5,0000.0,0008.43,0004.04,0003.53
2023-12-12 04:03:00,SystemResetWarning,0834.3,5.00,000.00,023.8,022.7,000.0,032.2,025.1,20.5,0000.0,0008.54,0004.04,0003.54
2023-12-12 04:04:00,SystemResetWarning,0834.3,5.00,000.00,023.8,022.6,000.0,032.1,025.0,20.5,0000.0,0008.52,0004.03,0003.55
2023-12-12 04:05:00,SystemResetWarning,0834.5,5.00,000.00,023.7,022.6,000.0,032.1,025.0,20.6,0000.0,0008.76,0004.00,0003.56
2023-12-12 04:06:00,SystemResetWarning,0834.5,4.99,000.00,023.7,022.6,000.0,032.1,025.0,20.6,0000.0,0009.34,0003.98,0003.56
2023-12-12 04:07:00,SystemResetWarning,0834.3,5.00,000.00,023.7,022.6,000.0,032.1,025.1,20.6,0000.0,0009.24,0003.97,0003.58
2023-12-12 04:08:00,SystemResetWarning,0834.5,5.00,000.00,023.7,022.6,000.0,032.1,025.0,20.6,0000.0,0009.18,0003.96,0003.60
2023-12-12 04:09:00,SystemResetWarning,0834.5,5.01,000.00,023.7,022.6,000.0,032.1,025.0,20.7,0000.0,0008.72,0004.01,0003.63
2023-12-12 04:10:00,SystemResetWarning,0834.4,5.01,000.00,023.7,022.6,000.0,032.1,025.0,20.7,0000.0,0008.59,0004.00,0003.65
2023-12-12 04:11:00,SystemResetWarning,0834.5,5.00,000.00,023.7,022.6,000.0,032.1,025.0,20.7,0000.0,0008.80,0004.00,0003.67
2023-12-12 04:12:00,SystemResetWarning,0834.3,4.98,000.00,023.7,022.6,000.0,032.1,025.0,20.7,0000.0,0008.79,0003.99,0003.69
2023-12-12 04:13:00,SystemResetWarning,0834.4,5.00,000.00,023.7,022.6,000.0,032.1,025.0,20.8,0000.0,0009.21,0004.01,0003.71
2023-12-12 04:14:00,SystemResetWarning,0834.4,5.02,000.00,023.7,022.6,000.0,032.1,024.9,20.8,0000.0,0009.51,0004.05,0003.73
2023-12-12 04:15:00,SystemResetWarning,0834.3,5.00,000.00,023.7,022.6,000.0,032.1,024.9,20.8,0000.0,0009.53,0004.09,0003.75
2023-12-12 04:16:00,SystemResetWarning,0834.4,4.99,000.00,023.7,022.6,000.0,032.1,024.9,20.8,0000.0,0009.38,0004.15,0003.77
2023-12-12 04:17:00,SystemResetWarning,0834.4,4.99,000.00,023.7,022.6,000.0,032.1,024.9,20.9,0000.0,0008.81,0004.19,0003.80
2023-12-12 04:18:00,SystemResetWarning,0834.4,5.01,000.00,023.7,022.6,000.0,032.1,025.0,20.9,0000.0,0008.67,0004.22,0003.82
2023-12-12 04:19:00,SystemResetWarning,0834.4,5.01,000.00,023.7,022.5,000.0,032.0,025.0,20.9,0000.0,0008.71,0004.24,0003.83
2023-12-12 04:20:00,SystemResetWarning,0834.4,5.00,000.00,023.6,022.5,000.0,032.0,025.0,20.9,0000.0,0008.75,0004.25,0003.83
2023-12-12 04:21:00,SystemResetWarning,0834.4,4.99,000.00,023.6,022.5,000.0,032.0,024.9,20.9,0000.0,0008.82,0004.27,0003.85
2023-12-12 04:22:00,SystemResetWarning,0834.4,5.00,000.00,023.6,022.5,000.0,032.0,024.9,21.0,0000.0,0008.75,0004.29,0003.86
2023-12-12 04:23:00,SystemResetWarning,0834.3,5.01,000.00,023.6,022.5,000.0,032.0,024.9,21.0,0000.0,0008.80,0004.31,0003.88
2023-12-12 04:24:00,SystemResetWarning,0834.4,4.99,000.00,023.6,022.5,000.0,032.0,024.9,21.0,0000.0,0008.63,0004.34,0003.90
2023-12-12 04:25:00,SystemResetWarning,0834.4,4.98,000.00,023.6,022.5,000.0,032.0,024.9,21.0,0000.0,0008.19,0004.37,0003.93
2023-12-12 04:26:00,SystemResetWarning,0834.4,5.01,000.00,023.6,022.5,000.0,032.0,024.9,21.0,0000.0,0008.23,0004.39,0003.95
2023-12-12 04:27:00,SystemResetWarning,0834.3,5.01,000.00,023.6,022.5,000.0,032.0,024.9,21.0,0000.0,0008.34,0004.41,0003.99
2023-12-12 04:28:00,SystemResetWarning,0834.5,5.00,000.00,023.6,022.5,000.0,032.0,024.9,21.1,0000.0,0008.32,0004.43,0004.04
2023-12-12 04:29:00,SystemResetWarning,0834.4,5.00,000.00,023.6,022.5,000.0,032.0,024.9,21.1,0000.0,0008.25,0004.46,0004.07
2023-12-12 04:30:00,SystemResetWarning,0834.4,4.99,000.00,023.6,022.5,000.0,032.0,024.9,21.1,0000.0,0008.33,0004.53,0004.12
2023-12-12 04:31:00,SystemResetWarning,0834.4,4.99,000.00,023.6,022.5,000.0,031.9,024.9,21.1,0000.0,0008.36,0004.58,0004.18
2023-12-12 04:32:00,SystemResetWarning,0834.4,5.00,000.00,023.6,022.5,000.0,031.9,024.9,21.1,0000.0,0008.41,0004.62,0004.23
2023-12-12 04:33:00,SystemResetWarning,0834.4,5.01,000.00,023.6,022.5,000.0,031.9,024.9,21.1,0000.0,0008.11,0004.66,0004.29
2023-12-12 04:34:00,SystemResetWarning,0834.3,5.01,000.00,023.5,022.5,000.0,031.9,024.9,21.1,0000.0,0008.10,0004.70,0004.34
2023-12-12 04:35:00,SystemResetWarning,0834.4,4.97,000.00,023.5,022.5,000.0,031.9,024.9,21.2,0000.0,0007.94,0004.76,0004.41
2023-12-12 04:36:00,SystemResetWarning,0834.3,5.00,000.00,023.6,022.5,000.0,031.9,024.9,21.2,0000.0,0007.89,0004.82,0004.49
2023-12-12 04:37:00,SystemResetWarning,0834.3,5.01,000.00,023.6,022.5,000.0,031.9,024.9,21.2,0000.0,0007.81,0004.93,0004.59
2023-12-12 04:38:00,SystemResetWarning,0834.3,5.01,000.00,023.6,022.6,000.0,031.9,024.9,21.2,0000.0,0007.77,0005.05,0004.70
2023-12-12 04:39:00,SystemResetWarning,0834.3,5.00,000.00,023.6,022.6,000.0,031.9,024.9,21.2,0000.0,0008.20,0005.16,0004.81
2023-12-12 04:40:00,SystemResetWarning,0834.3,4.99,000.00,023.6,022.6,000.0,031.9,024.9,21.2,0000.0,0008.38,0005.27,0004.92
2023-12-12 04:41:00,SystemResetWarning,0834.3,4.99,000.00,023.6,022.6,000.0,031.9,025.0,21.2,0000.0,0008.63,0005.32,0005.02
2023-12-12 04:42:00,SystemResetWarning,0834.3,5.00,000.00,023.6,022.6,000.0,031.9,025.0,21.2,0000.0,0008.86,0005.40,0005.11
2023-12-12 04:43:00,SystemResetWarning,0834.4,5.01,000.00,023.6,022.6,000.0,031.9,025.0,21.1,0000.0,0008.91,0005.49,0005.21
2023-12-12 04:44:00,SystemResetWarning,0834.6,5.01,000.00,023.6,022.6,000.0,031.9,025.0,21.1,0000.0,0009.13,0005.60,0005.31
2023-12-12 04:45:00,SystemResetWarning,0834.7,5.00,000.00,023.6,022.6,000.0,031.9,025.0,21.1,0000.0,0009.38,0005.72,0005.42
2023-12-12 04:46:00,SystemResetWarning,0834.3,4.99,000.00,023.6,022.7,000.0,031.9,025.0,21.2,0000.0,0009.45,0005.83,0005.53
2023-12-12 04:47:00,SystemResetWarning,0834.3,4.99,000.00,023.6,022.7,000.0,031.9,025.0,21.2,0000.0,0009.57,0005.90,0005.60
2023-12-12 04:48:00,SystemResetWarning,0834.4,4.99,000.00,023.6,022.7,000.0,031.9,025.0,21.1,0000.0,0009.81,0005.96,0005.67
2023-12-12 04:49:00,SystemResetWarning,0834.4,5.01,000.00,023.7,022.7,000.0,031.9,025.0,21.2,0000.0,0009.93,0006.00,0005.71
2023-12-12 04:50:00,SystemResetWarning,0834.4,5.01,000.00,023.7,022.7,000.0,031.9,025.0,21.2,0000.0,0009.65,0006.00,0005.76
2023-12-12 04:51:00,SystemResetWarning,0834.4,5.00,000.00,023.7,022.7,000.0,031.9,025.0,21.2,0000.0,0009.41,0006.01,0005.79
2023-12-12 04:52:00,SystemResetWarning,0834.4,5.00,000.00,023.7,022.7,000.0,031.9,025.0,21.2,0000.0,0009.45,0006.06,0005.84
2023-12-12 04:53:00,SystemResetWarning,0834.4,5.00,000.00,023.7,022.7,000.0,031.9,025.0,21.2,0000.0,0009.49,0006.14,0005.88
2023-12-12 04:54:00,SystemResetWarning,0834.4,5.00,000.00,023.7,022.7,000.0,031.9,025.0,21.2,0000.0,0009.51,0006.15,0005.88
2023-12-12 04:55:00,SystemResetWarning,0834.4,5.00,000.00,023.7,022.7,000.0,031.9,025.0,21.2,0000.0,0009.42,0006.13,0005.87
2023-12-12 04:56:00,SystemResetWarning,0834.4,4.99,000.00,023.7,022.7,000.0,031.9,025.0,21.2,0000.0,0009.30,0006.12,0005.84
2023-12-12 04:57:00,SystemResetWarning,0834.3,4.99,000.00,023.7,022.7,000.0,031.9,025.0,21.2,0000.0,0009.29,0006.08,0005.80
2023-12-12 04:58:00,SystemResetWarning,0834.3,4.99,000.00,023.7,022.7,000.0,031.9,025.0,21.2,0000.0,0009.19,0006.07,0005.76
2023-12-12 04:59:00,SystemResetWarning,0834.4,5.01,000.00,023.7,022.7,000.0,031.9,025.0,21.2,0000.0,0008.95,0006.05,0005.71
